This demonstration page uses our WeatherBlox Daily Observations layout. Learn more.

Left ArrowRight Arrow

-33.86785, 151.20732

Hourly Observations for December 20, 2022

Temp ( °F °C ) Dew Point ( °F °C ) Humidity (%) Winds ( mph kmh ) Pressure ( in mb ) Visibility ( mi km ) Precip ( " mm )
12:00 am 00:00 Mostly Cloudy 63 17 50 10 63 63 S 17 28 30.21 1023 6 10 0.00 0.00
12:30 am 00:30 Mostly Cloudy 63 17 50 10 63 63 SSE 17 28 30.21 1023 6 10 0.00 0.00
1:00 am 01:00 Mostly Cloudy 63 17 48 9 59 59 SSE 13 20 30.18 1022 6 10 0.00 0.00
1:30 am 01:30 Mostly Cloudy 61 16 48 9 63 63 SSE 10 17 30.18 1022 6 10 0.00 0.00
2:00 am 02:00 Mostly Cloudy with Light Showers 59 15 48 9 67 67 WSW 10 17 30.18 1022 6 10 0.00 0.00
2:30 am 02:30 Mostly Cloudy with Showers Nearby 59 15 50 10 72 72 WSW 13 20 30.15 1021 6 10 0.00 0.00
3:00 am 03:00 Mostly Cloudy 59 15 50 10 72 72 WSW 10 17 30.15 1021 6 10 0.00 0.00
3:30 am 03:30 Mostly Cloudy 59 15 48 9 67 67 WSW 10 17 30.15 1021 6 10 0.00 0.00
4:00 am 04:00 Mostly Cloudy 59 15 48 9 67 67 WSW 13 20 30.15 1021 6 10 0.00 0.00
4:30 am 04:30 Mostly Cloudy 59 15 48 9 67 67 WSW 12 19 30.15 1021 6 10 0.00 0.00
5:00 am 05:00 Mostly Cloudy 59 15 48 9 67 67 WSW 14 22 30.15 1021 6 10 0.00 0.00
5:30 am 05:30 Mostly Cloudy with Light Showers 57 14 48 9 72 72 WSW 14 22 30.15 1021 6 10 0.00 0.00
6:00 am 06:00 Mostly Cloudy with Showers Nearby 59 15 48 9 67 67 SW 12 19 30.15 1021 6 10 0.00 0.00
6:30 am 06:30 Mostly Cloudy with Showers Nearby 59 15 48 9 67 67 SW 13 20 30.15 1021 6 10 0.00 0.00
7:00 am 07:00 Mostly Cloudy with Showers Nearby 59 15 48 9 67 67 SW 13 20 30.15 1021 6 10 0.00 0.00
7:30 am 07:30 Mostly Cloudy 61 16 48 9 63 63 SW 12 19 30.18 1022 6 10 0.00 0.00
8:00 am 08:00 Mostly Cloudy with Showers Nearby 63 17 50 10 63 63 SW 15 24 30.18 1022 6 10 0.00 0.00
8:30 am 08:30 Mostly Cloudy with Showers Nearby 63 17 52 11 68 68 SW 14 22 30.18 1022 6 10 0.00 0.00
9:00 am 09:00 Mostly Cloudy 63 17 52 11 68 68 SSW 16 26 30.18 1022 6 10 0.00 0.00
9:30 am 09:30 Mostly Cloudy 64 18 52 11 64 64 SSW 15 24 30.18 1022 6 10 0.00 0.00
10:00 am 10:00 Mostly Cloudy 64 18 54 12 68 68 S 17 28 30.18 1022 6 10 0.00 0.00
10:30 am 10:30 Mostly Cloudy with Showers Nearby 64 18 54 12 68 68 S 17 28 30.18 1022 6 10 0.00 0.00
11:00 am 11:00 Mostly Cloudy with Showers Nearby 64 18 54 12 68 68 S 20 31 30.18 1022 6 10 0.00 0.00
11:30 am 11:30 Windy with Rain Showers Likely 64 18 54 12 68 68 S 20 31 30.18 1022 6 10 0.00 0.00
12:00 pm 12:00 Mostly Cloudy with Showers Nearby 64 18 52 11 64 64 S 20 31 30.18 1022 6 10 0.00 0.00
12:30 pm 12:30 Mostly Cloudy with Showers Nearby 66 19 52 11 60 60 S 18 30 30.18 1022 6 10 0.00 0.00
1:00 pm 13:00 Mostly Sunny 66 19 52 11 60 60 S 18 30 30.15 1021 6 10 0.00 0.00
1:30 pm 13:30 Mostly Sunny 66 19 54 12 64 64 SSE 18 30 30.15 1021 6 10 0.00 0.00
2:00 pm 14:00 Mostly Sunny 66 19 52 11 60 60 SSE 17 28 30.15 1021 6 10 0.00 0.00
2:30 pm 14:30 Mostly Sunny 66 19 52 11 60 60 S 20 31 30.12 1020 6 10 0.00 0.00
3:00 pm 15:00 Mostly Sunny 68 20 48 9 49 49 SSE 18 30 30.12 1020 6 10 0.00 0.00
3:30 pm 15:30 Mostly Sunny 66 19 54 12 64 64 SSE 17 28 30.12 1020 6 10 0.00 0.00
4:00 pm 16:00 Mostly Sunny 66 19 52 11 60 60 SSE 18 30 30.12 1020 6 10 0.00 0.00
4:30 pm 16:30 Partly Cloudy 66 19 54 12 64 64 SSE 17 28 30.12 1020 6 10 0.00 0.00
5:00 pm 17:00 Mostly Sunny 68 20 52 11 56 56 SSE 18 30 30.09 1019 6 10 0.00 0.00
5:30 pm 17:30 Partly Cloudy with Sleet 66 19 52 11 60 60 SSE 17 28 30.09 1019 6 10 0.00 0.00
6:00 pm 18:00 Sunny 68 20 50 10 53 53 SSE 17 28 30.09 1019 6 10 0.00 0.00
6:30 pm 18:30 Sunny 66 19 46 8 49 49 SSE 15 24 30.09 1019 6 10 0.00 0.00
7:00 pm 19:00 Sunny 66 19 50 10 56 56 SSE 17 28 30.09 1019 6 10 0.00 0.00
7:30 pm 19:30 Sunny 66 19 52 11 60 60 SSE 17 28 30.12 1020 6 10 0.00 0.00
8:00 pm 20:00 Mostly Sunny 64 18 50 10 59 59 SSE 17 28 30.12 1020 6 10 0.00 0.00
8:30 pm 20:30 Mostly Clear 64 18 52 11 64 64 SSE 15 24 30.12 1020 6 10 0.00 0.00
9:00 pm 21:00 Mostly Clear 64 18 52 11 64 64 SSE 13 20 30.12 1020 6 10 0.00 0.00
9:30 pm 21:30 Partly Cloudy 63 17 52 11 68 68 SSE 12 19 30.12 1020 6 10 0.00 0.00
10:00 pm 22:00 Partly Cloudy 63 17 52 11 68 68 SSE 9 15 30.12 1020 6 10 0.00 0.00
10:30 pm 22:30 Mostly Clear 63 17 54 12 72 72 SSE 8 13 30.12 1020 6 10 0.00 0.00
11:30 pm 23:30 Partly Cloudy with Light Showers 63 17 54 12 72 72 SE 6 9 30.12 1020 6 10 0.00 0.00

Powered by AerisWeather